Location: Bailleul
(50.3375°N, 2.8513°E)
Time: 04:46:13
(UTC+00:00)

STPSAT 2 (USA 217) - Pass Details

Date: 19 April 2021
Orbit: 624 x 644 km, 72.0° (Epoch: 24 April)

Event Time Altitude Azimuth Distance (km) Brightness Sun altitude
Rises 21:44:03 0° 331° (NNW) 2,929 9.5 -22.5°
Reaches altitude 10° 21:46:20 10° 330° (NNW) 2,020 8.3 -22.7°
Maximum altitude 21:50:51 76° 246° (WSW) 657 4.6 -23.1°
Enters shadow 21:51:13 71° 199° (SSW) 674 4.5 -23.1°
